Location: Grand Rapids
(42.9630°N, 85.6680°W)
Time: 02:51:25
(UTC-04:00)

S-56A Canister/Altair - Pass Details

Date: 06 June 2024
Orbit: 637 x 2489 km, 38.9° (Epoch: 22 June)

Event Time Altitude Azimuth Distance (km) Brightness Sun altitude
Rises 04:36:13 0° 251° (WSW) 5,938 - -13.0°
Exits shadow 04:39:06 - 250° (WSW) 5,245 11.2 -12.7°
Reaches altitude 10° 04:39:57 10° 249° (WSW) 5,042 11.1 -12.5°
Maximum altitude 04:54:53 72° 170° (S) 2,532 10.0 -10.7°
Drops below altitude 10° 05:08:15 10° 89° (E) 4,563 12.2 -8.9°
Sets 05:11:26 0° 88° (E) 5,367 12.7 -8.5°
